Location: Aranbee
(34.0885°N, 118.2342°W)
Time: 21:56:00
(UTC+00:00)

deb Explorer IX - All Passes

Search period start: 25 November 2020 00:00
Search period end: 05 December 2020 00:00
Orbit: 538 x 1104 km, 38.8° (Epoch: 25 November)

Date Brightness Start Highest point End Pass type
(mag) Time Alt. Az. Time Alt. Az. Time Alt. Az.
25 Nov - 01:04:24 10° SW 01:10:01 50° SSE 01:14:47 10° ENE visible
25 Nov - 02:51:45 10° W 02:56:56 61° NNW 03:01:22 10° ENE visible
25 Nov - 04:39:39 10° WNW 04:44:07 45° N 04:48:08 10° ENE visible
25 Nov - 06:26:50 10° WNW 06:31:05 87° SSW 06:35:07 10° ESE night (unlit)
25 Nov - 08:14:33 10° W 08:17:23 18° SW 08:20:14 10° S night (unlit)
25 Nov - 22:56:50 10° S 23:00:03 14° SE 23:03:02 10° ESE daylight
26 Nov - 00:40:55 10° SW 00:46:43 52° SSE 00:51:39 10° ENE daylight
26 Nov - 02:28:19 10° W 02:33:41 62° NNW 02:38:15 10° ENE visible
26 Nov - 04:16:18 10° WNW 04:20:56 46° N 04:25:02 10° ENE visible
26 Nov - 06:03:33 10° WNW 06:07:54 86° SSW 06:11:57 10° ESE night (unlit)
26 Nov - 07:51:22 10° W 07:54:11 18° SW 07:56:59 10° S night (unlit)
26 Nov - 22:33:11 10° S 22:36:42 15° SE 22:39:59 10° ESE daylight
27 Nov - 00:17:24 10° SW 00:23:25 53° SSE 00:28:32 10° ENE daylight
27 Nov - 02:04:52 10° W 02:10:26 62° NNW 02:15:09 10° ENE visible
27 Nov - 03:52:55 10° WNW 03:57:43 47° N 04:01:54 10° ENE visible
27 Nov - 05:40:15 10° WNW 05:44:44 85° SSW 05:48:48 10° ESE night (unlit)
27 Nov - 07:28:09 10° W 07:30:59 18° SW 07:33:46 10° S night (unlit)
27 Nov - 22:09:32 10° S 22:13:21 16° SE 22:16:54 10° ESE daylight
27 Nov - 23:53:53 10° SW 00:00:05 54° SSE 00:05:23 10° ENE daylight
28 Nov - 01:41:23 10° W 01:47:09 63° NNW 01:52:01 10° ENE visible
28 Nov - 03:29:30 10° WNW 03:34:29 49° N 03:38:48 10° E visible
28 Nov - 05:16:56 10° WNW 05:21:32 85° SSW 05:25:40 10° ESE night (unlit)
28 Nov - 07:04:54 10° W 07:07:47 18° SW 07:10:34 10° S night (unlit)
28 Nov - 21:45:54 10° S 21:49:58 17° SE 21:53:47 10° ESE daylight
28 Nov - 23:30:21 10° SW 23:36:45 56° SSE 23:42:12 10° ENE daylight
29 Nov - 01:17:54 10° W 01:23:52 64° NNW 01:28:53 10° ENE visible
29 Nov - 03:06:04 10° WNW 03:11:14 50° N 03:15:41 10° E visible
29 Nov - 04:53:34 10° WNW 04:58:19 84° SSW 05:02:31 10° ESE visible
29 Nov - 06:41:37 10° W 06:44:34 18° SW 06:47:23 10° S night (unlit)
29 Nov - 21:22:17 10° S 21:26:34 17° SE 21:30:36 10° ESE daylight
29 Nov - 23:06:49 10° SW 23:13:23 57° SSE 23:19:01 10° ENE daylight
30 Nov - 00:54:24 10° W 01:00:33 64° NNW 01:05:45 10° ENE daylight
30 Nov - 02:42:37 10° WNW 02:47:59 51° N 02:52:33 10° E visible
30 Nov - 04:30:10 10° WNW 04:35:06 84° SSW 04:39:24 10° ESE visible
30 Nov - 06:18:18 10° W 06:21:21 18° SW 06:24:13 10° S night (unlit)
30 Nov - 20:58:40 10° S 21:03:10 18° SE 21:07:24 10° E daylight
30 Nov - 22:43:16 10° SW 22:49:59 58° SSE 22:55:49 10° ENE daylight
01 Dec - 00:30:53 10° W 00:37:12 65° NNW 00:42:35 10° ENE daylight
01 Dec - 02:19:08 10° WNW 02:24:42 52° N 02:29:26 10° E visible
01 Dec - 04:06:45 10° WNW 04:11:51 83° SSW 04:16:15 10° ESE visible
01 Dec - 05:54:56 10° W 05:58:06 19° SW 06:01:04 10° S night (unlit)
01 Dec - 20:35:05 10° S 20:39:44 19° SE 20:44:10 10° E daylight
01 Dec - 22:19:43 10° SW 22:26:34 59° SSE 22:32:35 10° ENE daylight
02 Dec - 00:07:21 10° W 00:13:51 65° NNW 00:19:24 10° ENE daylight
02 Dec - 01:55:38 10° WNW 02:01:24 53° N 02:06:17 10° E visible
02 Dec - 03:43:19 10° WNW 03:48:37 83° SSW 03:53:07 10° ESE visible
02 Dec - 05:31:34 10° W 05:34:52 19° SW 05:37:55 10° S night (unlit)
02 Dec - 20:11:30 10° S 20:16:18 19° SE 20:20:54 10° E daylight
02 Dec - 21:56:10 10° SW 22:03:08 60° SSE 22:09:19 10° ENE daylight
02 Dec - 23:43:48 10° W 23:50:29 66° NNW 23:56:12 10° ENE daylight
03 Dec - 01:32:06 10° WNW 01:38:05 54° N 01:43:08 10° E visible
03 Dec - 03:19:51 10° WNW 03:25:20 83° SSW 03:29:59 10° ESE visible
03 Dec - 05:08:09 10° W 05:11:36 20° SW 05:14:47 10° S night (unlit)
03 Dec - 19:47:56 10° S 19:52:51 20° SE 19:57:36 10° E daylight
03 Dec - 21:32:38 10° SW 21:39:41 61° SSE 21:46:03 10° ENE daylight
03 Dec - 23:20:15 10° W 23:27:05 66° NNW 23:32:59 10° ENE daylight
04 Dec - 01:08:34 10° WNW 01:14:44 55° N 01:19:58 10° E visible
04 Dec - 02:56:22 10° WNW 03:02:03 83° SSW 03:06:49 10° ESE visible
04 Dec - 04:44:42 10° W 04:48:20 20° SW 04:51:38 10° S visible
04 Dec - 19:24:23 10° S 19:29:24 20° SE 19:34:15 10° E daylight
04 Dec - 21:09:05 10° SW 21:16:13 61° SSE 21:22:44 10° ENE daylight
04 Dec - 22:56:42 10° W 23:03:39 67° NNW 23:09:44 10° ENE daylight
